Simultaneous Nadir Overpasses (SNOs) Predictions

Prediction of SNOs between FY3D and LANDSAT-8 Satellite Orbit:

Table of predicted SNOs for the next 14.0 days since TLE Epoch: 1/6/2024
Index Date (FY3D) Time (FY3D) Lat,Lon (FY3D) SZA (FY3D ) Date (LANDSAT-8) Time (LANDSAT-8) Lat,Lon (LANDSAT-8) SZA (LANDSAT-8 ) Distance(km) Time Diff (sec)
1 01/06/2024 14:46:32 73.76, -39.08 96.18 01/06/2024 14:47:02 73.75, -39.17 96.17 3.08 30
2 01/06/2024 15:37:15 -73.68, 128.42 83.91 01/06/2024 15:36:31 -73.68, 128.32 83.91 3.18 44
3 01/09/2024 06:13:27 -73.77, -90.80 84.15 01/09/2024 06:14:07 -73.77, -90.90 84.16 3.19 40
4 01/09/2024 07:04:12 73.70, 76.68 95.78 01/09/2024 07:03:33 73.74, 76.66 95.81 3.65 39
5 01/11/2024 21:40:24 73.81,-142.58 95.50 01/11/2024 21:41:09 73.80,-142.59 95.49 0.73 45
6 01/11/2024 22:31:07 -73.72, 24.95 84.60 01/11/2024 22:30:38 -73.74, 24.91 84.58 2.64 29
7 01/14/2024 13:07:19 -73.83, 165.69 84.93 01/14/2024 13:08:13 -73.85, 165.74 84.91 2.88 54
8 01/14/2024 13:58:04 73.77, -26.85 95.01 01/14/2024 13:57:40 73.76, -26.81 95.00 1.69 24
9 01/17/2024 04:34:14 73.84, 113.98 94.60 01/17/2024 04:35:14 73.85, 113.98 94.61 1.09 60
10 01/17/2024 05:24:58 -73.79, -78.59 85.46 01/17/2024 05:24:43 -73.79, -78.51 85.46 2.43 15
11 01/17/2024 06:15:28 72.99, 90.57 93.74 01/17/2024 06:14:23 73.02, 87.51 93.76 99.48 65
12 01/19/2024 20:01:09 -73.86, 62.24 85.92 01/19/2024 20:02:18 -73.87, 62.26 85.91 1.17 69
13 01/19/2024 20:51:53 73.77,-130.21 93.98 01/19/2024 20:51:45 73.78,-130.30 93.99 3.02 8



Historial Predications of SNOs between FY3D and LANDSAT-8
